Retour au catalogue

STARLINK-5376

ActifCommunicationsVLEO
NORAD 56142·PAYLOAD·🇺🇸 United States

Lancé Mar 29, 2023 depuis Cape Canaveral Space Force Station

Loading…

Prochains Passages (prochaines 24 heures)

TLE

FraisSource: CelesTrak SupGP

Époque: Sep 14, 2026, 22:25 UTC

1 56142C 23046BB  26257.93451389 -.00035763  00000+0 -12954-2 0  2572
2 56142  43.0021 157.9237 0001516 270.1804 186.3641 15.27593596    11

Suivez STARLINK-5376 en temps réel avec AllMySat

Download on the App Store